TimeEST,TemperatureF,Dew PointF,Humidity,Sea Level PressureIn,VisibilityMPH,Wind Direction,Wind SpeedMPH,Gust SpeedMPH,PrecipitationIn,Events,Conditions,WindDirDegrees,DateUTC
12:53 AM,63.0,60.1,90,30.17,10.0,ENE,5.8,-,N/A,,Mostly Cloudy,60,2013-01-08 05:53:00
1:53 AM,62.1,60.1,93,30.15,10.0,ENE,6.9,-,N/A,,Clear,60,2013-01-08 06:53:00
2:53 AM,62.1,60.1,93,30.14,10.0,ENE,6.9,-,N/A,,Partly Cloudy,60,2013-01-08 07:53:00
3:53 AM,63.0,60.1,90,30.15,10.0,ENE,3.5,-,N/A,,Mostly Cloudy,60,2013-01-08 08:53:00
4:53 AM,63.0,61.0,93,30.14,10.0,NE,4.6,-,N/A,,Mostly Cloudy,50,2013-01-08 09:53:00
5:53 AM,63.0,61.0,93,30.15,10.0,NE,5.8,-,N/A,,Partly Cloudy,50,2013-01-08 10:53:00
6:53 AM,63.0,61.0,93,30.17,10.0,ENE,5.8,-,N/A,,Clear,60,2013-01-08 11:53:00
7:53 AM,63.0,61.0,93,30.20,10.0,ENE,4.6,-,N/A,,Clear,60,2013-01-08 12:53:00
8:53 AM,64.4,62.6,94,30.22,10.0,ENE,3.5,-,N/A,,Partly Cloudy,60,2013-01-08 13:53:00
9:53 AM,68.0,64.0,87,30.23,10.0,ENE,4.6,-,N/A,,Clear,70,2013-01-08 14:53:00
10:53 AM,70.0,64.0,81,30.22,10.0,ENE,4.6,-,N/A,,Clear,70,2013-01-08 15:53:00
11:53 AM,73.9,66.0,76,30.20,10.0,NE,3.5,-,N/A,,Clear,50,2013-01-08 16:53:00
12:53 PM,77.0,66.9,71,30.17,10.0,ENE,6.9,-,N/A,,Clear,70,2013-01-08 17:53:00
1:53 PM,79.0,66.0,64,30.15,10.0,East,6.9,-,N/A,,Scattered Clouds,80,2013-01-08 18:53:00
2:53 PM,80.1,64.9,60,30.14,10.0,ENE,3.5,-,N/A,,Clear,70,2013-01-08 19:53:00
3:53 PM,81.0,64.9,58,30.14,10.0,Calm,Calm,-,N/A,,Clear,0,2013-01-08 20:53:00
4:53 PM,80.1,64.9,60,30.14,10.0,Calm,Calm,-,N/A,,Clear,0,2013-01-08 21:53:00
5:53 PM,75.9,64.9,69,30.14,10.0,NE,3.5,-,N/A,,Mostly Cloudy,40,2013-01-08 22:53:00
6:53 PM,75.9,64.9,69,30.14,10.0,East,8.1,-,N/A,,Scattered Clouds,100,2013-01-08 23:53:00
7:53 PM,73.0,64.9,76,30.15,10.0,East,4.6,-,N/A,,Clear,90,2013-01-09 00:53:00
8:53 PM,73.0,66.0,79,30.16,10.0,East,6.9,-,N/A,,Partly Cloudy,100,2013-01-09 01:53:00
9:53 PM,72.0,66.0,81,30.17,10.0,East,5.8,-,N/A,,Scattered Clouds,100,2013-01-09 02:53:00
10:53 PM,72.0,66.0,81,30.18,10.0,East,6.9,-,N/A,,Overcast,90,2013-01-09 03:53:00